Home   Weather   Słupsk   Past weeks

Flag for Poland Past Weather in Słupsk, Poland — Yesterday and Last 2 Weeks

Now
37 °F

Passing clouds.


Feels Like: 33 °F
Forecast: 39 / 42 °F
Wind: 5 mph from North

Location: Leba

Current Time: Dec 3, 2016 at 5:54:02 am

Latest Report: Dec 3, 2016 at 5:00 am


Visibility: 13 mi

Pressure: 30.11 "Hg

Humidity: 71%

Dew Point: 28 °F

Location of SłupskLocation

Past Weather in Słupsk — Graph

°F

Słupsk Temperature Yesterday

Maximum temperature yesterday: 45 °F (at 2:00 pm)
Minimum temperature yesterday: 36 °F (at 2:00 am)
Average temperature yesterday: 39 °F

High & Low Weather Summary for the Past Weeks

 TemperatureHumidityPressure
High53 °F (Nov 18, 3:00 pm)100% (Nov 25, 9:00 am)30.33 "Hg (Nov 25, 9:00 am)
Low28 °F (Nov 25, 8:00 am)48% (Nov 27, 5:00 pm)29.35 "Hg (Dec 1, 11:00 pm)
Average42 °F85%29.91 "Hg
* Reported Nov 18 4:00 am — Dec 3 4:00 am, Słupsk, Weather by CustomWeather, © 2016

Note: Actual official high and low records may vary slightly from our data, if they occured in-between our weather recording intervals... More about our weather records

Advertising

Słupsk Weather History for the Previous 24 Hours

Scroll right to see more
 ConditionsComfort  
Time TempWeatherWind HumidityBarometerVisibility
4:00 am
Sat, Dec 3
37 °FPassing clouds.5 mph69%30.09 "Hg12 mi
3:00 am38 °FPassing clouds.5 mph73%30.07 "Hg12 mi
2:00 am38 °FOvercast.7 mph80%30.05 "Hg12 mi
1:00 am35 °FOvercast.7 mph93%30.04 "Hg9 mi
12:00 am35 °FLight mixture of precip. Low clouds.5 mph95%30.03 "Hg6 mi
10:00 pm
Fri, Dec 2
N/APassing clouds.25 mphN/AN/A2 mi
9:00 pm40 °FOvercast.7 mph71%29.97 "Hg12 mi
7:00 pm39 °FOvercast.7 mph75%29.95 "Hg12 mi
6:00 pm40 °FPassing clouds.6 mph70%29.94 "Hg12 mi
5:00 pm39 °FOvercast.7 mph77%29.93 "Hg12 mi
4:00 pm37 °FSprinkles. Overcast.6 mph89%29.91 "Hg7 mi
3:00 pm44 °FSprinkles. Overcast.6 mph83%29.89 "Hg9 mi
2:00 pm45 °FOvercast.7 mph77%29.87 "Hg12 mi
1:00 pm39 °FPartly sunny.6 mph74%29.86 "Hg12 mi
12:00 pm40 °FPartly sunny.6 mph73%29.85 "Hg22 mi
11:00 amN/APassing clouds.29 mphN/AN/A2 mi
10:00 am39 °FOvercast.5 mph73%29.82 "Hg22 mi
9:00 am39 °FOvercast.6 mph70%29.79 "Hg22 mi
8:00 am38 °FOvercast.6 mph73%29.76 "Hg22 mi
7:00 am39 °FPassing clouds.6 mph72%29.72 "Hg22 mi
6:00 am39 °FPassing clouds.7 mph73%29.68 "Hg22 mi
5:00 am40 °FOvercast.8 mph77%29.62 "Hg22 mi
Weather by CustomWeather, © 2016

See weather overviewHow to use our weather pages